Location: Le Vaud
(46.4779°N, 6.2346°E)
Time: 15:13:36
(UTC+00:00)

Meteor 2-10 Rocket - Pass Details

Date: 18 February 2020
Orbit: 734 x 885 km, 81.2° (Epoch: 27 March)

Event Time Altitude Azimuth Distance (km) Brightness Sun altitude
Exits shadow 04:03:56 83° 317° (NW) 800 3.4 -26.6°
Drops below altitude 10° 04:09:01 10° 10° (N) 2,314 6.2 -25.7°
Sets 04:11:20 0° 11° (N) 3,226 7.0 -25.3°
